Flag for Angola Weather past 2 weeks in Luanda, Angola

Now
81 °F

Passing clouds.


Feels Like: 84 °F
Forecast: 77 / 87 °F
Wind: 3 mph from North

Location: Luanda Airport

Current Time: Jan 28, 2015 at 10:29:08 PM

Latest Report: Jan 28, 2015 at 9:00 PM


Visibility: N/A

Pressure: 29.86 "Hg

Humidity: 70%

Dew point: 70 °F

Location of LuandaLocation

Historic Weather in Luanda — Graph

°F

Luanda temperature yesterday

Maximum temperature yesterday: 90 °F (at 2:00 PM)
Minimum temperature yesterday: 79 °F (at 1:00 AM)
Average temperature yesterday: 82 °F

Past Weeks' High & Low Weather Summary

 TemperatureHumidityPressure
High90 °F (Jan 20, 3:00 PM)94% (Jan 19, 8:00 AM)30.15 "Hg (Jan 19, 8:00 AM)
Low61 °F (Jan 19, 8:00 AM)49% (Jan 20, 11:00 AM)29.77 "Hg (Jan 24, 5:00 PM)
Average81 °F73%29.88 "Hg
* Reported Jan 13 10:00 PM — Jan 28 9:00 PM, Luanda, Weather by CustomWeather, © 2014

Note: Actual official high and low records may vary slightly from our data, if they occured in-between our weather recording intervals... More about our weather records

Advertising

Luanda weather history for previous 24 hours

 ConditionsComfort  
Time TempWeatherWind HumidityBarometerVisibility
9:00 PM
Jan 28
81 °FPassing clouds.3 mph70%29.86 "HgN/A
8:00 PM81 °FPassing clouds.7 mph70%29.83 "HgN/A
7:00 PM82 °FPassing clouds.7 mph66%29.80 "HgN/A
6:00 PM82 °FPartly sunny.7 mph70%29.80 "HgN/A
5:00 PM84 °FPartly sunny.7 mph66%29.80 "HgN/A
4:00 PM84 °FBroken clouds.7 mph66%29.80 "HgN/A
3:00 PM82 °FBroken clouds.7 mph74%29.83 "HgN/A
2:00 PM82 °FBroken clouds.7 mph79%29.83 "HgN/A
1:00 PM82 °FPartly sunny.9 mph74%29.86 "HgN/A
12:00 PM84 °FPartly sunny.6 mph70%29.89 "HgN/A
11:00 AM82 °FPartly sunny.3 mph74%29.92 "HgN/A
10:00 AM81 °FBroken clouds.6 mph79%29.92 "HgN/A
9:00 AM82 °FBroken clouds.5 mph74%29.92 "HgN/A
8:00 AM81 °FBroken clouds.3 mph79%29.92 "HgN/A
7:00 AM79 °FBroken clouds.No wind84%29.89 "HgN/A
6:00 AM79 °FPassing clouds.No wind84%29.89 "HgN/A
5:00 AM79 °FPassing clouds.2 mph84%29.86 "HgN/A
4:00 AM79 °FPartly cloudy.2 mph84%29.86 "HgN/A
3:00 AM79 °FPassing clouds.3 mph79%29.86 "HgN/A
2:00 AM79 °FPassing clouds.3 mph79%29.86 "HgN/A
12:00 AM81 °FPassing clouds.6 mph74%29.89 "HgN/A
11:00 PM
Jan 27
81 °FPassing clouds.7 mph74%29.92 "HgN/A
10:00 PM81 °FPassing clouds.8 mph74%29.92 "HgN/A
Weather by CustomWeather, © 2014

See weather overviewHow to use our weather pages